This is the latest recevied weather packets stored in our database for station/object KD0JCP-10. If no packets are shown the sender has not sent any weather packets the latest 1 day(s).
| Time | Temp. | Humidity | Pressure | Rain* | Wind** | Luminosity | Snow |
|---|---|---|---|---|---|---|---|
| 1778097070 | 13.33° C | 31% | 1020 hPa | 0 mm | - | - | - |
| 1778096470 | 13.33° C | 34% | 1020.2 hPa | 0 mm | - | - | - |
| 1778096170 | 13.33° C | 33% | 1020.2 hPa | 0 mm | - | - | - |
| 1778095870 | 12.78° C | 34% | 1020.2 hPa | 0 mm | - | - | - |
| 1778095570 | 12.78° C | 34% | 1020.4 hPa | 0 mm | - | - | - |
| 1778095270 | 12.78° C | 34% | 1020.4 hPa | 0 mm | - | - | - |
| 1778094970 | 12.78° C | 34% | 1020.3 hPa | 0 mm | - | - | - |
| 1778094670 | 12.78° C | 33% | 1020.5 hPa | 0 mm | - | - | - |
| 1778094370 | 12.78° C | 34% | 1020.6 hPa | 0 mm | - | - | - |
| 1778094070 | 12.78° C | 33% | 1020.7 hPa | 0 mm | - | - | - |
| 1778093770 | 13.33° C | 33% | 1020.6 hPa | 0 mm | - | - | - |
| 1778093470 | 12.78° C | 35% | 1020.9 hPa | 0 mm | - | - | - |
| 1778093170 | 13.33° C | 32% | 1020.8 hPa | 0 mm | - | - | - |
| 1778092870 | 13.33° C | 33% | 1020.9 hPa | 0 mm | - | - | - |
| 1778092570 | 13.33° C | 32% | 1021 hPa | 0 mm | - | - | - |
| 1778092270 | 13.33° C | 37% | 1020.9 hPa | 0 mm | - | - | - |
| 1778091970 | 13.33° C | 33% | 1021 hPa | 0 mm | - | - | - |
| 1778091670 | 12.78° C | 33% | 1021.2 hPa | 0 mm | - | - | - |
| 1778091370 | 12.78° C | 34% | 1021.1 hPa | 0 mm | - | - | - |
| 1778091070 | 12.78° C | 34% | 1021.2 hPa | 0 mm | - | - | - |
| 1778090770 | 12.78° C | 34% | 1021.3 hPa | 0 mm | - | - | - |
| 1778090470 | 13.33° C | 34% | 1021.3 hPa | 0 mm | - | - | - |
| 1778090170 | 12.78° C | 33% | 1021.3 hPa | 0 mm | - | - | - |
| 1778089870 | 12.78° C | 35% | 1021.5 hPa | 0 mm | - | - | - |
| 1778089570 | 12.22° C | 32% | 1021.5 hPa | 0 mm | - | - | - |
* Rain latest hour (hover to see other rain measurements)
** Current wind speed in m/s (hover to see current wind gust speed)